Weather in Maklaki

Russia / Kaluga Oblast     54°01′50″N   34°51′55″E
temp.,
°C
wind,
m/s
gust,
m/s
humid.,
%
clouds,
%
prec.,
mm/h
press.,
hPa
HPBL,
m
12 april, mon
mon1200:00+6e22721 0.0 103124
03:00+5e2376100 0.0 103142
06:00+4ene3981100 0.0 1031164
09:00+8e51357100 0.0 1030535
12:00+8e41062100 0.0 1028592
15:00+12e4670100 0.0 1027592
18:00+12e3878100 0.0 1026457
21:00+9ene31093100 0.0 1025234
13 april, tue
tue1300:00+9e31193100 0.0 1023241
03:00+8ese3990100 0.0 1023175
06:00+7se2590100 0.0 102394
09:00+12sse377086 0.0 1023239
12:00+18sse4752100 0.0 1022917
15:00+19sse584354 0.0 10211604
18:00+17se375334 0.0 1020266
21:00+13ese226891 0.0 102135
14 april, wed
wed1400:00+11s227592 0.0 102133
03:00+11se267991 0.0 1020170
06:00+9se398614 0.0 1020232
09:00+13sse377218 0.0 1019419
12:00+17sse475770 0.3 10181172
15:00+18se574186 0.5 10171788
18:00+16se2554100 0.0 1016133
21:00+12sw3677100 0.1 1017166
15 april, thu
thu1500:00+11se2791100 0.7 1017272
03:00+10se2494100 1.3 1017108
06:00+10sse2495100 0.7 1017104
09:00+12s2482100 1.3 1017191
12:00+14sse1266100 0.5 1017599
15:00+17sse1353100 0.6 10151221
18:00+15nne2268100 1.4 101529
21:00+11n2382100 2.9 101553
16 april, fri
fri1600:00+10nne398885 0.0 1014184
03:00+9ne41089100 0.0 1014241
06:00+9ne4987100 0.1 1014208
09:00+11nne51082100 0.6 1014433
12:00+13ene6978100 0.2 1015946
15:00+11ne6117984 0.2 1016771
18:00+11ne71481100 0.4 1017943
21:00+8ne8158391 0.5 1019795